LRI4LW NZNP-NZHN

Flight info

Callsign LRI4LW
Flight time 0h 17m
Altitude 21000
Route HARVO H479 HN
Aircraft C700/M-SBDGHM1RWXY/LB2

Departure

Time 2026-04-24 19:31
Airport New Plymouth Airport (NZNP)

Arrival

Time 2026-04-24 19:48
Airport Hamilton International Airport (NZHN)
Time Latitude Longitude Altitude Speed Heading
2026-04-24 19:31 -38.79216 174.39856 17846 ft 386 kts 42°
2026-04-24 19:31 -38.77133 174.42089 19093 ft 394 kts 42°
2026-04-24 19:31 -38.75726 174.43596 19815 ft 398 kts 43°
2026-04-24 19:31 -38.72820 174.46671 20970 ft 414 kts 41°
2026-04-24 19:32 -38.71285 174.48215 21010 ft 429 kts 40°
2026-04-24 19:32 -38.68151 174.51340 21023 ft 427 kts 41°
2026-04-24 19:32 -38.66613 174.52883 20849 ft 407 kts 41°
2026-04-24 19:32 -38.64407 174.55111 19694 ft 403 kts 41°
2026-04-24 19:33 -38.62218 174.57322 18697 ft 398 kts 40°
2026-04-24 19:33 -38.60055 174.59493 17592 ft 392 kts 40°
2026-04-24 19:33 -38.57957 174.61607 17111 ft 373 kts 40°
2026-04-24 19:33 -38.56015 174.63544 17047 ft 345 kts 40°
2026-04-24 19:34 -38.54184 174.65374 16924 ft 324 kts 41°
2026-04-24 19:34 -38.52413 174.67152 16259 ft 323 kts 41°
2026-04-24 19:34 -38.50658 174.68910 16165 ft 322 kts 41°
2026-04-24 19:34 -38.48777 174.70799 16221 ft 368 kts 40°
2026-04-24 19:35 -38.46678 174.72898 16237 ft 394 kts 40°
2026-04-24 19:35 -38.44476 174.75075 16235 ft 404 kts 40°
2026-04-24 19:35 -38.42256 174.77287 16238 ft 406 kts 40°
2026-04-24 19:35 -38.40052 174.79491 16238 ft 407 kts 40°
2026-04-24 19:36 -38.37815 174.81714 16235 ft 407 kts 40°
2026-04-24 19:36 -38.35578 174.83936 16239 ft 407 kts 40°
2026-04-24 19:36 -38.33345 174.86153 16239 ft 407 kts 40°
2026-04-24 19:36 -38.31113 174.88373 16238 ft 407 kts 40°
2026-04-24 19:37 -38.28859 174.90605 16238 ft 407 kts 40°
2026-04-24 19:37 -38.26625 174.92818 16237 ft 407 kts 40°
2026-04-24 19:37 -38.24414 174.95010 16240 ft 407 kts 40°
2026-04-24 19:37 -38.22181 174.97221 16239 ft 407 kts 40°
2026-04-24 19:38 -38.19930 174.99414 16240 ft 407 kts 39°
2026-04-24 19:38 -38.17664 175.01575 16130 ft 402 kts 39°
2026-04-24 19:38 -38.15472 175.03685 15651 ft 388 kts 39°
2026-04-24 19:38 -38.13353 175.05750 15148 ft 378 kts 39°
2026-04-24 19:39 -38.11272 175.07763 14647 ft 373 kts 39°
2026-04-24 19:39 -38.09206 175.09748 14159 ft 371 kts 39°
2026-04-24 19:39 -38.07173 175.11709 13648 ft 359 kts 39°
2026-04-24 19:39 -38.05231 175.13579 13180 ft 342 kts 39°
2026-04-24 19:40 -38.03370 175.15371 12721 ft 329 kts 39°
2026-04-24 19:40 -38.01580 175.17094 12275 ft 318 kts 39°
2026-04-24 19:40 -37.99863 175.18746 11825 ft 309 kts 39°
2026-04-24 19:40 -37.98056 175.20184 11357 ft 305 kts 26°
2026-04-24 19:41 -37.96062 175.21048 10910 ft 301 kts 17°
2026-04-24 19:41 -37.94047 175.21767 10480 ft 298 kts 18°
2026-04-24 19:41 -37.92079 175.22494 10035 ft 297 kts 18°
2026-04-24 19:41 -37.90099 175.23216 9580 ft 295 kts 17°
2026-04-24 19:42 -37.88124 175.23934 9140 ft 293 kts 17°
2026-04-24 19:42 -37.86178 175.24647 8696 ft 290 kts 18°
2026-04-24 19:42 -37.84371 175.25711 8241 ft 286 kts 35°
2026-04-24 19:42 -37.82830 175.27266 7819 ft 282 kts 43°
2026-04-24 19:43 -37.81330 175.28852 7401 ft 280 kts 41°
2026-04-24 19:43 -37.79820 175.30346 7334 ft 273 kts 33°
2026-04-24 19:43 -37.77992 175.31038 6937 ft 280 kts
2026-04-24 19:43 -37.76049 175.30712 6378 ft 281 kts 349°
2026-04-24 19:44 -37.74151 175.30377 5883 ft 275 kts
2026-04-24 19:44 -37.72486 175.31228 5674 ft 248 kts 43°
2026-04-24 19:44 -37.71703 175.32980 5631 ft 220 kts 82°
2026-04-24 19:44 -37.71793 175.34832 5412 ft 208 kts 106°
2026-04-24 19:45 -37.72530 175.36394 5001 ft 209 kts 134°
2026-04-24 19:45 -37.73703 175.37351 4293 ft 204 kts 161°
2026-04-24 19:45 -37.75098 175.37473 3466 ft 195 kts 189°
2026-04-24 19:45 -37.76317 175.37005 3024 ft 170 kts 199°
2026-04-24 19:46 -37.77314 175.36615 2595 ft 138 kts 195°
2026-04-24 19:46 -37.78198 175.36298 2486 ft 133 kts 196°
2026-04-24 19:46 -37.79114 175.35960 2492 ft 137 kts 196°
2026-04-24 19:46 -37.80070 175.35624 2253 ft 146 kts 194°
2026-04-24 19:47 -37.81040 175.35297 1580 ft 144 kts 196°
2026-04-24 19:47 -37.81968 175.34948 1086 ft 137 kts 197°
2026-04-24 19:47 -37.82861 175.34593 737 ft 133 kts 197°
2026-04-24 19:47 -37.83749 175.34267 577 ft 134 kts 195°
2026-04-24 19:48 -37.84655 175.33949 384 ft 134 kts 195°
2026-04-24 19:48 -37.85559 175.33629 218 ft 135 kts 196°
2026-04-24 19:48 -37.86679 175.33222 170 ft 5 kts 197°
2026-04-24 19:49 -37.86685 175.33124 167 ft 0 kts 281°
2026-04-24 19:49 -37.86697 175.33025 166 ft 10 kts 209°
2026-04-24 19:50 -37.86801 175.32943 167 ft 1 kts 277°